Satellite: AO-40 Catalog number: 26609 Epoch time: 01187.95840278 Element set: 105 Inclination: 5.4282 deg RA of node: 175.2252 deg Eccentricity: 0.7989107 Arg of perigee: 296.9763 deg Mean anomaly: 7.6829 deg Mean motion: 1.25601115 rev/day Decay rate: -2.76000e-06 rev/day^2 Epoch rev: 314 Checksum: 309